User: anonymous   Login
Location: Ward Pound Ridge Reservation
(41.2500°N, 73.6000°W)
Time: 20:29:50
(UTC-05:00)
Language:

Vanguard 2 Rocket - Orbit

View from above orbital plane
View from above orbital plane
View from above satellite
View from above satellite

Ground track
Ground track

The orbit data is extracted from the following two-line orbital elements,

1 00012U 59001B   18018.46885560  .00000139  00000-0  83137-4 0  9997
2 00012  32.8943 193.0573 1664943 124.5622 252.3500 11.44162168421623
Epoch (UTC): 18 January 2018 11:15:09
Eccentricity: 0.1664943
inclination: 32.8943°
perigee height: 556 km
apogee height: 3326 km
right ascension of ascending node: 193.0573°
argument of perigee: 124.5622°
revolutions per day: 11.44162168
mean anomaly at epoch: 252.3500°
orbit number at epoch: 42162

The dashed part of the orbit path shows where the satellite is in the earth's shadow,  

DLR